Tracking 25701 objects as of 4-Jul-2022
HD Live streaming from Space Station
objects crossing your sky now

COSMOS 970 DEB

Track COSMOS 970 DEB now!
10-day predictions


NORAD ID: 13504
Int'l Code: 1977-121BB
Perigee: 829.9 km
Apogee: 1,132.6 km
Inclination: 66.1 °
Period: 104.6 minutes
Semi major axis: 7352 km
RCS: 0.036 m2 (small)
Launch date: December 21, 1977
Source: Commonwealth of Independent States (former USSR) (CIS)
Launch site: TYURATAM MISSILE AND SPACE COMPLEX (TTMTR)

Note: This is SATELLITE DEBRIS
aabbcc
Your satellite tracking list
Your tracking list is empty




NASA's NSSDC Master Catalog

Two Line Element Set (TLE):
1 13504U 77121BB  22184.58622473 -.00000034  00000-0  38911-4 0  9999
2 13504  66.1172  48.9428 0205873 207.8443 177.2146 13.77123697227124
Source of the keplerian elements: AFSPC